Weather History for Pocatello, ID

Change the Weather History Date:

Monday, May 2, 2011

  Actual Average Record
Temperature  
Mean Temperature 44 °F 50 °F  
Max Temperature 63 °F 64 °F 88 °F (1947)
Min Temperature 25 °F 36 °F 22 °F (2001)
Degree Days  
Heating Degree Days 21 15  
Month to date heating degree days 45 30  
Since 1 July heating degree days 6744 6724  
Cooling Degree Days 0 0  
Month to date cooling degree days 0 0  
Year to date cooling degree days 0 0  
Moisture  
Dew Point 21 °F    
Average Humidity 48    
Maximum Humidity 75    
Minimum Humidity 20    
Precipitation  
Precipitation 0.00 in 0.05 in 0.57 in (1991)
Month to date precipitation 0.00 0.10  
Year to date precipitation 4.93 4.47  
Snow  
Snow 0.00 in - - ()
Month to date snowfall 0.0  
Since 1 July snowfall 52.9  
Snow Depth 0.00 in    
Sea Level Pressure  
Sea Level Pressure 30.25 in    
Wind  
Wind Speed 11 mph (SW)    
Max Wind Speed 29 mph    
Max Gust Speed 37 mph    
Visibility 10 miles    
Events      
T = Trace of Precipitation, MM = Missing Value Source: NWS Daily Summary

Daily Weather History Graph

Daily Weather History Graph

Search for Another Location

Airport:

Trip Planner

Search our weather history database for the weather conditions in past years. The results will help you decide how hot, cold, wet, or windy it might be!

Date:

Astronomy

May. 02, 2011 Rise Set
Actual Time 6:23 AM MDT 8:32 PM MDT
Civil Twilight 5:52 AM MDT 9:03 PM MDT
Nautical Twilight 5:13 AM MDT 9:41 PM MDT
Astronomical Twilight 4:31 AM MDT 10:23 PM MDT
Moon 5:44 AM MDT (5/2) 8:25 PM MDT (5/2)
Length of Visible Light 15h 11m
Length of Day
14h 08m
Waning Crescent, 0% of the Moon is Illuminated
May 2
Waning Crescent
May 3
New
May 10
First Quarter
May 17
Full
May 24
Last Quarter

Hourly Weather History & Observations

Time (MDT) Temp. Windchill Dew Point Humidity Pressure Visibility Wind Dir Wind Speed Gust Speed Precip Events Conditions
12:00 AM - - - N/A% - - North - - N/A   Unknown
12:53 AM 34.0 °F 26.6 °F 23.0 °F 64% 30.32 in 10.0 mi South 9.2 mph - N/A   Clear
1:53 AM 35.1 °F 29.3 °F 19.9 °F 54% 30.31 in 10.0 mi South 6.9 mph - N/A   Clear
2:53 AM 36.0 °F - 18.0 °F 48% 30.30 in 10.0 mi Calm Calm - N/A   Clear
3:53 AM 33.1 °F - 18.0 °F 54% 30.32 in 10.0 mi Calm Calm - N/A   Clear
4:53 AM 30.9 °F - 19.0 °F 61% 30.33 in 10.0 mi Calm Calm - N/A   Clear
5:53 AM 28.0 °F - 19.9 °F 72% 30.35 in 10.0 mi Calm Calm - N/A   Clear
6:53 AM 28.0 °F 22.8 °F 21.0 °F 75% 30.36 in 10.0 mi WNW 4.6 mph - N/A   Clear
7:53 AM 36.0 °F 33.3 °F 24.1 °F 62% 30.36 in 10.0 mi NNW 3.5 mph - N/A   Clear
8:53 AM 43.0 °F - 25.0 °F 49% 30.38 in 10.0 mi Calm Calm - N/A   Clear
9:53 AM 50.0 °F - 19.9 °F 31% 30.35 in 10.0 mi South 5.8 mph - N/A   Clear
10:53 AM 52.0 °F - 23.0 °F 32% 30.34 in 10.0 mi West 6.9 mph - N/A   Clear
11:53 AM 54.0 °F - 21.9 °F 29% 30.32 in 10.0 mi WNW 5.8 mph - N/A   Partly Cloudy
12:53 PM 57.0 °F - 21.9 °F 26% 30.30 in 10.0 mi West 8.1 mph - N/A   Partly Cloudy
1:53 PM 59.0 °F - 21.9 °F 24% 30.26 in 10.0 mi West 11.5 mph - N/A   Partly Cloudy
2:53 PM 61.0 °F - 21.0 °F 21% 30.22 in 10.0 mi West 10.4 mph - N/A   Partly Cloudy
3:53 PM 62.1 °F - 21.9 °F 21% 30.20 in 10.0 mi SSW 8.1 mph 19.6 mph N/A   Partly Cloudy
4:53 PM 62.1 °F - 25.0 °F 24% 30.18 in 10.0 mi SSW 15.0 mph 24.2 mph N/A   Partly Cloudy
5:53 PM 59.0 °F - 24.1 °F 26% 30.18 in 10.0 mi South 21.9 mph 25.3 mph N/A   Partly Cloudy
6:53 PM 57.0 °F - 23.0 °F 27% 30.16 in 10.0 mi South 23.0 mph 29.9 mph N/A   Clear
7:53 PM 55.0 °F - 19.9 °F 25% 30.13 in 10.0 mi South 23.0 mph 31.1 mph N/A   Clear
8:53 PM 53.1 °F - 18.0 °F 25% 30.11 in 10.0 mi South 26.5 mph 35.7 mph N/A   Clear
9:53 PM 53.1 °F - 17.1 °F 24% 30.09 in 10.0 mi South 23.0 mph 34.5 mph N/A   Clear
10:53 PM 52.0 °F - 16.0 °F 24% 30.08 in 10.0 mi South 24.2 mph 33.4 mph N/A   Partly Cloudy
11:53 PM 52.0 °F - 17.1 °F 25% 30.06 in 10.0 mi South 23.0 mph - N/A   Mostly Cloudy